Probability
7 5 3 4 6 8 10 7 2 1 3 5 5 4 3 3 3 2 1 1 2 6 9 13 16 17 13 7 4 4 4 3 1 0 0 0 0 0 0 0 0 0 0
8 5 2 2 4 7 7 5 1 1 2 4 5 4 3 3 4 3 1 0 1 4 8 12 16 17 15 11 7 6 5 4 2 1 0 0 0 0 0 0 0 0 0
8 5 2 1 4 5 4 2 0 0 1 3 4 3 3 4 4 3 2 1 0 1 5 9 13 16 17 15 12 8 6 6 5 3 1 0 0 0 0 0 0 0 0
8 6 3 2 3 4 3 1 0 0 1 2 3 3 3 3 4 3 2 1 0 0 1 4 9 13 16 17 14 10 6 6 6 5 3 1 0 0 0 0 0 0 0
7 6 3 2 2 3 3 2 0 0 0 1 3 3 3 3 3 3 1 1 0 0 0 1 3 8 13 16 14 10 7 5 5 5 3 1 0 0 0 0 0 0 0
6 5 3 1 0 1 3 2 1 0 0 1 2 3 3 3 3 2 1 0 0 0 0 0 1 3 8 12 13 12 9 6 5 4 3 1 0 0 0 0 0 0 0
5 5 3 1 0 1 2 3 2 1 0 1 2 3 2 2 2 2 1 0 0 0 0 0 0 1 3 6 9 11 11 8 5 4 3 3 1 0 0 0 0 0 0
4 4 3 1 0 0 1 3 2 1 0 1 2 2 1 1 1 1 0 0 0 0 0 0 0 0 1 2 5 7 9 8 6 4 4 4 3 1 0 0 0 0 0
3 3 2 1 0 0 1 2 2 1 0 0 1 1 1 0 0 0 0 0 0 0 1 1 1 0 0 1 2 3 4 6 5 4 3 4 3 3 1 0 0 0 0
3 3 2 1 0 0 1 2 2 1 0 0 0 0 0 0 0 0 0 0 0 0 1 1 1 1 1 1 1 0 1 2 3 3 3 3 4 4 3 1 0 0 0
2 3 2 1 0 0 0 1 1 0 0 0 0 0 0 0 0 0 0 0 0 0 0 0 1 1 2 2 1 0 0 0 1 2 2 2 4 4 3 1 0 0 0
1 1 2 1 0 0 0 0 0 0 0 0 0 0 0 1 0 0 0 0 0 0 0 0 0 1 2 2 1 0 0 0 0 0 0 1 2 3 2 1 0 0 0
0 1 2 1 0 0 0 0 0 0 0 0 0 0 0 0 0 0 0 0 0 0 0 0 0 0 1 1 0 0 0 0 0 0 0 0 1 1 1 1 0 0 0
0 0 1 1 0 0 0 0 1 0 0 0 0 0 0 0 0 0 0 0 0 0 0 0 0 0 0 0 0 0 0 0 0 0 0 0 0 0 0 0 0 0 0
0 0 0 0 0 0 0 0 0 0 0 0 0 0 0 0 0 0 0 0 0 0 0 0 0 0 0 0 0 0 0 0 0 0 0 0 0 0 0 0 0 0 0
0 0 0 0 0 0 0 0 0 0 0 0 0 0 0 0 0 0 0 0 0 0 0 0 0 0 0 0 0 0 0 0 0 0 0 0 0 0 0 0 0 0 0
0 0 0 0 0 0 0 0 0 0 0 0 0 0 0 0 0 0 0 0 0 0 0 0 0 0 0 0 0 0 0 0 0 0 0 0 0 0 0 0 0 0 0
0 0 0 0 0 0 0 0 0 0 0 0 0 0 0 0 0 0 0 0 0 0 0 0 0 0 0 0 0 0 0 0 0 0 0 0 0 0 0 0 0 0 0
0 0 0 0 0 0 0 0 0 0 0 0 0 0 0 0 0 0 0 0 0 0 0 0 0 0 0 0 0 0 0 0 0 0 0 0 0 0 0 0 0 0 0
0 0 0 0 0 0 0 0 0 0 0 0 0 0 0 0 0 0 0 0 0 0 0 0 0 0 0 0 0 0 0 0 0 0 0 0 0 0 0 0 0 0 0
0 0 0 0 0 0 0 0 0 0 0 0 0 0 0 0 0 0 0 0 0 0 0 0 0 0 0 0 0 0 0 0 0 0 0 0 0 0 0 0 0 0 0
0 0 0 0 0 0 0 0 0 0 0 0 0 0 0 0 0 0 0 0 0 0 0 0 0 0 0 0 0 0 0 0 0 0 0 0 0 0 0 0 0 0 0
0 0 0 0 0 0 0 0 0 0 0 0 0 0 0 0 0 0 0 0 0 0 0 0 0 0 0 0 0 0 0 0 0 0 0 0 0 0 0 0 0 0 0
0 0 0 0 0 0 0 0 0 0 0 0 0 0 0 0 0 0 0 0 0 0 0 0 0 0 0 0 0 0 0 0 0 0 0 0 0 0 0 0 0 0 0
0 0 0 0 0 0 0 0 0 0 0 0 0 0 0 0 0 0 0 0 0 0 0 0 0 0 0 0 0 0 0 0 0 0 0 0 0 0 0 0 0 0 0
0 0 0 0 0 0 0 0 0 0 0 0 0 0 0 0 0 0 0 0 0 0 0 0 0 0 0 0 0 0 0 0 0 0 0 0 0 0 0 0 0 0 0
Wind_Speed
1 2 1 2 2 2 2 2 3 4 4 4 5 6 6 5 5 4 4 11 13 15 17 17 17 16 15 15 14 13 12 11 10 9 8 7 6 4 3 3 2 1 2
2 2 2 2 2 2 2 3 3 3 4 4 5 5 6 5 5 5 5 7 12 14 17 17 17 17 16 16 15 14 13 12 11 10 9 7 6 5 4 3 2 1 1
2 2 2 2 2 2 3 3 3 3 3 3 4 5 4 5 5 5 6 5 7 11 14 17 17 17 17 16 16 15 14 13 12 11 10 8 7 6 5 4 2 1 1
3 2 2 2 3 2 2 3 2 2 3 3 3 4 3 4 5 5 5 6 5 6 10 15 16 17 17 17 17 16 15 14 13 12 11 9 8 7 6 4 3 2 2
3 2 2 2 2 2 2 3 3 3 3 3 3 3 3 3 4 5 5 6 6 6 6 10 14 15 16 17 17 16 16 15 14 13 12 10 9 8 7 5 4 3 2
3 3 3 3 3 2 3 3 3 3 3 3 3 3 3 3 3 4 5 5 6 7 7 7 8 9 14 16 16 16 16 16 15 14 13 11 10 9 8 6 5 4 3
4 3 3 3 3 3 4 4 3 4 3 2 2 2 2 3 4 4 5 5 6 7 8 8 7 6 7 14 15 16 17 16 16 15 14 12 11 10 9 7 6 5 5
5 5 4 4 4 3 4 4 4 3 3 3 3 2 1 2 3 4 4 5 6 6 7 9 8 8 6 6 9 14 16 16 16 15 14 13 12 11 10 8 7 6 5
5 6 6 5 5 5 4 5 5 5 4 4 4 4 3 3 1 2 4 5 5 5 6 6 8 8 8 6 7 11 14 16 16 16 15 14 13 12 11 9 8 7 6
7 7 7 6 6 5 6 6 6 5 5 5 4 4 3 3 3 2 3 4 5 6 6 6 7 8 8 7 8 12 14 14 16 16 15 14 13 13 12 10 9 7 6
7 7 7 6 7 6 7 7 6 6 5 6 5 4 4 3 3 4 4 4 3 4 5 6 6 6 8 8 7 10 14 14 16 15 15 15 14 13 12 10 8 7 6
6 7 8 7 7 7 7 8 8 8 7 7 6 5 5 5 5 4 5 6 5 4 4 4 5 6 6 7 9 13 14 14 14 13 12 12 12 12 11 9 8 6 5
6 7 8 7 7 7 8 8 8 8 8 8 8 6 6 6 5 4 4 4 3 2 2 3 4 5 6 6 7 13 13 14 13 12 11 11 10 10 10 9 7 6 6
7 7 8 8 8 9 9 8 8 9 8 8 9 8 6 6 6 5 5 5 4 3 3 4 3 5 6 6 8 12 10 14 12 12 11 11 11 10 9 8 7 6 5
7 8 8 8 8 9 9 9 8 9 8 8 8 9 7 6 6 6 5 6 6 5 5 4 3 4 5 5 9 8 8 12 13 12 11 11 11 10 9 8 7 6 4
8 8 8 9 9 10 10 10 9 9 10 9 7 9 8 6 6 6 6 5 5 5 5 4 3 3 5 5 9 8 8 13 13 13 12 12 11 11 10 9 7 6 5
8 8 8 8 8 10 10 10 10 10 11 10 9 10 10 8 6 6 6 6 5 5 5 4 3 4 5 6 6 6 6 7 8 12 12 12 11 11 10 9 8 6 5
7 7 8 8 9 10 9 10 11 11 11 11 11 10 11 8 9 8 7 7 6 6 6 6 4 4 5 6 6 6 5 5 5 10 12 11 11 11 10 10 8 7 5
7 7 8 9 9 9 9 10 11 11 11 11 11 11 11 10 9 8 8 7 6 6 5 6 5 4 4 4 5 4 5 4 4 7 9 10 11 11 10 10 9 7 5
7 7 8 8 9 9 9 9 10 10 10 10 11 11 11 11 10 9 9 9 7 7 7 7 6 5 4 4 5 5 4 3 3 4 5 6 9 9 9 9 9 7 6
7 6 7 7 7 7 7 7 8 9 10 10 10 10 10 11 12 10 9 9 8 7 7 7 6 5 5 6 6 5 5 3 2 3 3 3 4 4 5 7 8 7 6
6 5 6 6 6 6 9 11 9 7 8 9 9 8 9 10 11 12 13 14 13 11 9 8 6 8 8 6 5 6 6 5 3 3 4 2 3 4 3 3 6 8 7
5 6 5 6 5 6 10 11 11 7 7 8 8 8 7 8 9 7 8 9 10 12 13 10 10 10 9 8 8 7 7 5 3 5 5 3 2 3 3 3 7 8 7
5 5 5 5 4 6 10 11 10 7 6 7 8 8 8 8 8 7 6 6 6 6 8 7 8 8 7 8 8 7 7 4 4 3 4 3 2 2 2 2 6 7 6
5 5 6 5 5 7 10 10 9 5 5 6 7 7 8 8 10 10 7 7 6 4 5 7 7 7 8 9 9 7 7 6 4 2 1 3 3 2 2 1 3 5 5
5 5 5 5 5 5 8 8 8 3 4 4 4 5 8 9 10 10 8 8 8 7 6 6 5 6 6 7 9 8 8 7 5 3 2 3 3 3 2 1 1 2 3
Wind_Direction
271 262 258 258 252 231 212 219 224 216 211 209 216 216 211 207 201 187 183 187 190 195 196 194 190 187 186 186 185 183 181 180 176 171 167 164 161 158 153 144 124 79 32
252 262 258 257 250 237 228 228 235 221 212 209 218 220 214 205 203 191 181 188 193 197 200 200 197 193 192 190 188 187 186 185 180 174 174 175 173 170 164 160 157 110 6
249 258 259 259 249 239 237 240 239 233 222 217 221 225 218 210 200 193 187 187 193 200 203 202 200 198 197 194 192 190 189 186 183 182 183 183 184 180 179 183 192 214 304
247 250 245 255 257 244 235 238 228 229 226 218 218 225 226 218 205 197 190 189 191 196 204 204 203 202 201 199 196 192 190 189 188 189 189 189 189 188 193 200 208 236 277
245 247 243 246 255 245 237 244 232 222 227 226 220 223 222 222 213 205 197 194 194 191 194 200 203 204 203 201 199 196 194 193 193 194 195 194 194 196 198 206 215 234 260
245 250 249 242 244 244 243 235 235 232 227 220 232 235 228 226 222 211 207 200 195 194 195 196 198 205 204 203 203 201 200 197 197 197 197 198 199 201 202 206 215 229 248
246 243 253 242 238 237 239 239 236 229 226 212 202 230 253 228 219 214 209 201 199 198 196 195 192 193 200 203 203 204 205 203 201 199 199 201 202 203 203 208 215 224 240
246 252 240 236 234 238 241 237 237 234 227 201 189 183 232 257 237 223 210 207 204 199 200 197 192 190 188 190 197 201 207 207 204 201 202 203 204 204 207 211 216 225 236
246 245 242 236 231 228 234 234 225 233 226 216 200 190 184 209 237 241 223 214 202 202 203 196 192 190 189 188 188 196 202 206 206 206 205 204 206 208 210 213 216 222 231
246 240 238 235 229 226 227 232 231 219 220 218 219 227 223 190 189 228 237 222 209 208 209 199 192 191 189 188 189 189 194 201 207 209 208 207 208 210 211 215 214 217 228
246 239 234 233 229 225 223 225 228 220 218 218 218 217 226 217 205 198 222 222 228 213 208 204 196 193 190 188 187 188 189 197 206 208 211 211 211 212 210 209 208 216 227
248 238 233 231 229 225 223 224 223 223 222 221 221 219 210 204 202 202 208 209 223 230 215 209 201 195 190 188 188 184 186 192 201 204 208 212 211 209 208 204 206 215 224
255 242 238 234 232 227 225 224 223 224 222 220 216 220 223 222 212 213 202 210 226 251 244 235 210 194 190 185 185 179 184 188 195 198 198 199 200 201 201 200 201 210 220
254 248 239 239 239 231 230 226 226 225 223 220 222 219 223 226 213 203 201 196 211 248 244 243 223 202 191 183 181 177 184 185 187 190 192 190 193 196 194 191 194 202 214
261 253 246 243 241 236 231 227 228 226 224 221 220 218 221 227 217 205 202 195 198 220 239 232 221 205 189 176 174 178 180 184 185 186 188 188 189 190 187 185 186 194 202
264 259 254 250 246 239 232 229 228 224 225 223 219 219 221 224 215 201 199 209 203 203 233 232 235 200 189 182 178 179 181 180 186 187 188 189 188 186 183 182 185 188 196
261 258 255 253 251 245 234 228 229 224 224 223 222 221 221 216 212 202 197 205 205 198 221 234 234 191 190 183 174 176 172 176 183 186 188 189 186 184 181 181 185 186 194
261 257 255 255 254 251 237 228 229 227 223 221 221 220 220 216 213 204 199 205 206 201 203 213 216 195 192 182 172 173 172 173 176 181 184 187 184 181 182 183 184 185 191
266 262 259 256 255 250 243 232 228 227 224 221 219 218 217 211 215 209 202 204 202 202 196 201 208 198 190 177 168 165 164 166 167 173 177 183 183 182 183 183 182 180 179
267 264 263 260 255 252 251 241 229 224 224 224 221 217 214 212 212 209 205 203 197 192 190 193 192 190 188 176 167 168 169 163 158 157 167 175 179 181 181 182 177 174 176
274 271 271 265 255 250 250 245 231 224 221 224 221 216 217 218 217 216 208 198 191 191 188 186 190 188 187 180 183 173 169 147 138 150 146 162 161 163 173 175 172 172 176
274 277 271 266 258 256 260 258 254 231 225 224 220 217 217 215 216 224 220 210 202 196 192 189 196 193 195 188 175 166 159 159 180 164 142 161 154 163 163 162 169 170 175
276 274 272 269 264 262 262 262 265 253 234 226 217 216 218 216 214 203 206 207 208 206 201 197 194 199 193 186 174 172 173 172 177 160 139 156 149 155 151 157 166 168 171
273 272 273 273 269 269 271 266 267 260 244 227 222 214 210 207 205 195 190 197 201 203 193 191 194 195 190 180 179 173 160 130 102 125 132 141 145 141 129 142 165 165 167
275 271 269 271 268 266 272 273 272 257 247 235 223 213 206 202 197 194 189 189 188 185 165 166 170 168 166 169 163 145 149 149 146 154 130 125 129 110 104 128 152 159 163
279 278 273 268 271 268 269 276 281 258 250 238 219 209 209 206 195 192 190 184 181 178 163 150 144 142 153 154 162 173 169 162 147 154 164 122 125 121 111 84 126 142 148